Avoca, PA

7:42 PM EDT on September 20, 2019 (GMT -0400)
Wilkes-Barre-Scranton International

Weather History for KAVP - July, 2019

Change the Weather History Date:

Wednesday, July 24, 2019

  Actual Average Record
Temperature  
Mean Temperature 70 °F 72 °F  
Max Temperature 82 °F 82 °F 95 °F (1933)
Min Temperature 57 °F 61 °F 49 °F (1985)
Degree Days  
Heating Degree Days 0 0  
Month to date heating degree days 0  
Since 1 June heating degree days 54  
Since 1 July heating degree days 0  
Cooling Degree Days 4 7  
Month to date cooling degree days 163  
Year to date cooling degree days 317  
Since 1 June cooling degree days 280  
Growing Degree Days 20 (Base 50)    
Moisture  
Dew Point 57 °F    
Average Humidity 66    
Maximum Humidity 93    
Minimum Humidity 25    
Precipitation  
Precipitation 0.00 in 0.13 in 3.28 in (1933)
Month to date precipitation 2.88  
Year to date precipitation 20.71  
Sea Level Pressure  
Sea Level Pressure 29.98 in    
Wind  
Wind Speed 4 mph (NNE)    
Max Wind Speed 13 mph    
Max Gust Speed 17 mph    
Visibility 10 miles    
Events      
T = Trace of Precipitation, MM = Missing Value Source: NWS Daily Summary

Daily Weather History Graph

Daily Weather History Graph

Search for Another Location

Airport or City:

Astronomy

Jul. 24, 2019 Rise Set
Actual Time 5:50 AM EDT 8:28 PM EDT
Civil Twilight 5:18 AM EDT 8:59 PM EDT
Nautical Twilight 4:38 AM EDT 9:39 PM EDT
Astronomical Twilight 3:52 AM EDT 10:24 PM EDT
Moon 12:10 AM EDT (7/24) 1:03 PM EDT (7/24)
Length of Visible Light 15h 41m
Length of Day
14h 37m
Waning Gibbous, 54% of the Moon is Illuminated
Jul 24
Waning Gibbous
Jul 24
Last Quarter
Jul 31
New
Aug 7
First Quarter
Aug 15
Full

Hourly Weather History & Observations

Time (EDT) Temp. Heat Index Dew Point Humidity Pressure Visibility Wind Dir Wind Speed Gust Speed Precip Events Conditions
12:54 AM 63.0 °F - 59.0 °F 87% 29.91 in 10.0 mi ESE 4.6 mph - N/A   Clear
1:54 AM 62.1 °F - 57.9 °F 86% 29.92 in 10.0 mi ESE 3.5 mph - N/A   Clear
2:54 AM 61.0 °F - 57.0 °F 87% 29.93 in 10.0 mi ESE 3.5 mph - N/A   Clear
3:54 AM 59.0 °F - 57.0 °F 93% 29.93 in 9.0 mi SE 3.5 mph - N/A   Clear
4:54 AM 59.0 °F - 57.0 °F 93% 29.94 in 9.0 mi Calm Calm - N/A   Clear
5:54 AM 59.0 °F - 55.9 °F 90% 29.96 in 10.0 mi ESE 5.8 mph - N/A   Clear
6:54 AM 59.0 °F - 57.0 °F 93% 29.99 in 8.0 mi Calm Calm - N/A   Clear
7:21 AM 61.0 °F - 57.9 °F 90% 30.00 in 8.0 mi Calm Calm - N/A   Scattered Clouds
7:54 AM 63.0 °F - 60.1 °F 90% 30.00 in 8.0 mi SW 3.5 mph - N/A   Clear
8:54 AM 66.0 °F - 60.1 °F 81% 30.00 in 10.0 mi SSW 3.5 mph - N/A   Clear
9:54 AM 71.1 °F - 60.1 °F 68% 30.00 in 10.0 mi Calm Calm - N/A   Clear
10:54 AM 73.9 °F - 59.0 °F 59% 29.99 in 10.0 mi Variable 3.5 mph - N/A   Clear
11:54 AM 78.1 °F - 55.9 °F 46% 29.98 in 10.0 mi North 6.9 mph - N/A   Scattered Clouds
12:54 PM 80.1 °F 80.1 °F 55.0 °F 42% 29.98 in 10.0 mi North 8.1 mph - N/A   Partly Cloudy
1:54 PM 79.0 °F - 52.0 °F 39% 29.97 in 10.0 mi NNW 10.4 mph 17.3 mph N/A   Scattered Clouds
2:54 PM 82.0 °F 81.3 °F 54.0 °F 38% 29.96 in 10.0 mi NNW 11.5 mph - N/A   Partly Cloudy
3:54 PM 82.0 °F 81.3 °F 54.0 °F 38% 29.96 in 10.0 mi NW 12.7 mph - N/A   Clear
4:54 PM 82.0 °F - 52.0 °F 35% 29.96 in 10.0 mi NW 5.8 mph - N/A   Partly Cloudy
5:54 PM 81.0 °F 80.5 °F 54.0 °F 39% 29.96 in 10.0 mi NNW 12.7 mph - N/A   Clear
6:54 PM 80.1 °F 80.0 °F 54.0 °F 40% 29.98 in 10.0 mi NW 8.1 mph - N/A   Clear
7:54 PM 77.0 °F - 55.9 °F 48% 30.00 in 10.0 mi North 3.5 mph - N/A   Mostly Cloudy
8:54 PM 69.1 °F - 59.0 °F 70% 30.01 in 10.0 mi Calm Calm - N/A   Partly Cloudy
9:54 PM 66.9 °F - 59.0 °F 76% 30.04 in 10.0 mi Variable 3.5 mph - N/A   Clear
10:54 PM 64.9 °F - 59.0 °F 81% 30.06 in 10.0 mi ESE 4.6 mph - N/A   Clear
11:54 PM 64.0 °F - 57.9 °F 80% 30.06 in 10.0 mi ESE 3.5 mph - N/A   Clear